History for Miami, FL

Wednesday, February 20, 2013 — View Current Conditions

Jump to Data:

Date:
Airport Code:
Recently Viewed Airport Codes: KMIA
Daily Summary
  Actual Average Record
Temperature
Mean Temperature 74°F 71°F  
Max Temperature 80°F 79°F 87°F (1988)
Min Temperature 68°F 63°F 42°F (1972)
Degree Days
Heating Degree Days 0 1  
Month to date heating degree days 16 20  
Since 1 July heating degree days 36 110  
Cooling Degree Days 9 7  
Month to date cooling degree days 118 115  
Year to date cooling degree days 387 266  
Growing Degree Days 24 (Base 50)    
Moisture
Dew Point 65°F    
Average Humidity 72    
Maximum Humidity 90    
Minimum Humidity 54    
Precipitation
Precipitation 0.00 in 0.07 in 0.73 in (1959)
Month to date precipitation 1.74 1.60  
Year to date precipitation 2.28 3.22  
Snow
Snow 0.00 in in in ()
Month to date snowfall 0.0  
Since 1 July snowfall 0.0  
Snow Depth 0.00 in    
Sea Level Pressure
Sea Level Pressure 30.08 in    
Wind
Wind Speed 6 mph (ENE)    
Max Wind Speed 16 mph    
Max Gust Speed 28 mph    
Visibility 10 miles    
Events      
T = Trace of Precipitation, MM = Missing Value Source: NWS Daily Summary

Show full METARS

(help) - Comma Delimited File

Hourly Observations

Time(EST) Temperature Dew Point Humidity Sea Level Pressure Visibility Wind Direction Wind Speed Gust Speed Precipitation Events Conditions
12:53 AM 70.0°F 66.0°F 87% 30.11 in 10.0 miles Calm Calm - N/A   Overcast
1:53 AM 68.0°F 64.9°F 90% 30.09 in 9.0 miles Calm Calm - N/A   Overcast
2:23 AM 69.8°F 66.2°F 88% 30.08 in 9.0 miles NNW 3.5 mph - N/A   Overcast
2:53 AM 69.1°F 66.0°F 90% 30.08 in 9.0 miles North 3.5 mph - N/A   Overcast
3:32 AM 69.8°F 64.4°F 83% 30.07 in 9.0 miles Calm Calm - N/A   Overcast
3:53 AM 69.1°F 66.0°F 90% 30.06 in 9.0 miles Calm Calm - N/A   Overcast
4:53 AM 69.1°F 66.0°F 90% 30.08 in 9.0 miles NNW 4.6 mph - N/A   Overcast
5:53 AM 69.1°F 64.9°F 87% 30.07 in 9.0 miles NNE 3.5 mph - N/A   Overcast
6:53 AM 68.0°F 64.9°F 90% 30.11 in 8.0 miles Calm Calm - N/A   Overcast
7:47 AM 69.8°F 64.4°F 83% 30.12 in 10.0 miles Variable 3.5 mph - N/A   Mostly Cloudy
7:53 AM 69.1°F 64.0°F 84% 30.12 in 10.0 miles Calm Calm - N/A   Mostly Cloudy
8:53 AM 73.0°F 63.0°F 71% 30.12 in 10.0 miles NNE 3.5 mph - N/A   Scattered Clouds
9:53 AM 75.9°F 61.0°F 60% 30.12 in 10.0 miles NNE 6.9 mph - N/A   Scattered Clouds
10:53 AM 77.0°F 60.1°F 56% 30.12 in 10.0 miles East 3.5 mph - N/A   Scattered Clouds
11:53 AM 79.0°F 61.0°F 54% 30.09 in 10.0 miles ENE 13.8 mph 17.3 mph N/A   Scattered Clouds
12:53 PM 79.0°F 62.1°F 56% 30.08 in 10.0 miles ENE 9.2 mph - N/A   Mostly Cloudy
1:53 PM 79.0°F 64.9°F 62% 30.06 in 10.0 miles East 13.8 mph - N/A   Mostly Cloudy
2:53 PM 77.0°F 64.9°F 66% 30.04 in 10.0 miles East 13.8 mph 23.0 mph N/A   Mostly Cloudy
3:53 PM 75.9°F 64.0°F 67% 30.04 in 10.0 miles East 13.8 mph - N/A   Mostly Cloudy
4:53 PM 75.0°F 64.9°F 71% 30.03 in 10.0 miles ESE 11.5 mph - N/A   Mostly Cloudy
4:55 PM 75.2°F 64.4°F 69% 30.03 in 10.0 miles East 10.4 mph - N/A   Mostly Cloudy
5:43 PM 73.4°F 64.4°F 73% 30.04 in 10.0 miles East 10.4 mph - N/A   Mostly Cloudy
5:53 PM 73.0°F 64.9°F 76% 30.05 in 10.0 miles East 10.4 mph - N/A   Mostly Cloudy
6:26 PM 73.4°F 66.2°F 78% 30.05 in 10.0 miles East 8.1 mph - N/A   Mostly Cloudy
6:53 PM 73.0°F 66.0°F 79% 30.07 in 10.0 miles East 4.6 mph - N/A   Mostly Cloudy
7:37 PM 73.4°F 66.2°F 78% 30.08 in 10.0 miles East 6.9 mph - N/A   Overcast
7:53 PM 73.0°F 66.0°F 79% 30.08 in 10.0 miles ENE 4.6 mph - N/A   Overcast
8:53 PM 73.0°F 66.0°F 79% 30.07 in 10.0 miles East 8.1 mph - N/A   Overcast
9:53 PM 73.0°F 66.0°F 79% 30.09 in 10.0 miles East 4.6 mph - N/A   Overcast
10:53 PM 73.0°F 66.9°F 81% 30.10 in 10.0 miles ENE 5.8 mph - N/A   Overcast
11:53 PM 73.0°F 66.9°F 81% 30.08 in 10.0 miles East 6.9 mph - N/A   Mostly Cloudy